Morrisville, VT

5:09 PM EST on December 15, 2017 (GMT -0500)
Morrisville Stowe State

Weather History for KMVL - December, 2013

Change the Weather History Date:

Monday, December 30, 2013

  Actual Average Record
Temperature  
Mean Temperature 19 °F 18 °F  
Max Temperature 37 °F 28 °F 41 °F (2003)
Min Temperature 0 °F 9 °F -2 °F (1998)
Degree Days  
Heating Degree Days 46 47  
Month to date heating degree days 1305 1263  
Since 1 July heating degree days 3088 3091  
Cooling Degree Days 0 0  
Month to date cooling degree days 0 0  
Year to date cooling degree days 401 265  
Moisture  
Dew Point 13 °F    
Average Humidity 77    
Maximum Humidity 96    
Minimum Humidity 58    
Precipitation  
Precipitation 0.01 in 0.07 in 2.11 in (1948)
Month to date precipitation 3.00 2.58  
Year to date precipitation 41.77 35.94  
Sea Level Pressure  
Sea Level Pressure 29.87 in    
Wind  
Wind Speed 11 mph (NNW)    
Max Wind Speed 24 mph    
Max Gust Speed 33 mph    
Visibility 6 miles    
Events Snow    
T = Trace of Precipitation, MM = Missing Value Source: NWS Daily Summary

Daily Weather History Graph

Daily Weather History Graph

Search for Another Location

Airport or City:

Trip Planner

Search our weather history database for the weather conditions in past years. The results will help you decide how hot, cold, wet, or windy it might be!

Date:

Astronomy

Dec. 30, 2013 Rise Set
Actual Time 7:26 AM EST 4:19 PM EST
Civil Twilight 6:53 AM EST 4:52 PM EST
Nautical Twilight 6:16 AM EST 5:29 PM EST
Astronomical Twilight 5:41 AM EST 6:05 PM EST
Moon 5:11 AM EST (12/30) 2:51 PM EST (12/30)
Length of Visible Light 9h 59m
Length of Day
8h 52m
Waning Crescent, 5% of the Moon is Illuminated
Dec 30
Waning Crescent
Jan 1
New
Jan 7
First Quarter
Jan 15
Full
Jan 24
Last Quarter

Hourly Weather History & Observations

Time (EST) Temp. Windchill Dew Point Humidity Pressure Visibility Wind Dir Wind Speed Gust Speed Precip Events Conditions
12:11 AM 33.8 °F - 30.2 °F 87% 29.56 in 8.0 mi Calm Calm - N/A   Overcast
12:20 AM 33.8 °F - 32.0 °F 93% 29.56 in 7.0 mi Calm Calm - N/A   Overcast
12:54 AM 33.1 °F 30.0 °F 30.9 °F 92% 29.58 in 7.0 mi SSW 3.5 mph - N/A   Overcast
1:01 AM 33.8 °F - 30.2 °F 87% 29.55 in 6.0 mi Calm Calm - N/A   Overcast
1:32 AM 33.8 °F - 30.2 °F 87% 29.56 in 2.5 mi Calm Calm - N/A   Overcast
1:52 AM 33.8 °F - 32.0 °F 93% 29.56 in 3.0 mi Calm Calm - N/A   Overcast
1:54 AM 33.1 °F - 32.0 °F 96% 29.58 in 3.0 mi Calm Calm - N/A   Overcast
2:01 AM 33.8 °F - 30.2 °F 87% 29.56 in 2.5 mi Calm Calm - N/A   Overcast
2:40 AM 33.8 °F - 30.2 °F 87% 29.58 in 3.0 mi Calm Calm - 0.01 in   Overcast
2:54 AM 33.1 °F - 30.9 °F 92% 29.61 in 4.0 mi Calm Calm - 0.01 in   Overcast
3:54 AM 33.1 °F - 30.9 °F 92% 29.60 in 7.0 mi Calm Calm - N/A   Overcast
4:51 AM 30.2 °F 18.5 °F 28.4 °F 93% 29.61 in 8.0 mi NNW 17.3 mph 23.0 mph 0.00 in   Overcast
4:54 AM 30.9 °F 19.4 °F 28.0 °F 89% 29.64 in 7.0 mi NNW 17.3 mph 26.5 mph 0.00 in   Overcast
5:04 AM 28.4 °F 15.8 °F 26.6 °F 93% 29.62 in 8.0 mi NNW 18.4 mph 24.2 mph 0.00 in   Overcast
5:22 AM 26.6 °F 13.4 °F 23.0 °F 86% 29.64 in 10.0 mi NNW 18.4 mph 33.4 mph 0.00 in   Overcast
5:50 AM 26.6 °F 13.8 °F 21.2 °F 80% 29.66 in 10.0 mi NW 17.3 mph 29.9 mph 0.00 in   Overcast
5:54 AM 25.0 °F 10.6 °F 21.0 °F 85% 29.70 in 10.0 mi NNW 20.7 mph 29.9 mph 0.00 in   Overcast
6:54 AM 23.0 °F 6.9 °F 19.0 °F 85% 29.76 in 10.0 mi NNW 24.2 mph 29.9 mph N/A   Overcast
7:26 AM 24.8 °F 11.9 °F 19.4 °F 80% 29.77 in 10.0 mi NNW 16.1 mph 21.9 mph N/A   Overcast
7:54 AM 23.0 °F 9.6 °F 17.1 °F 78% 29.85 in 7.0 mi NW 16.1 mph 28.8 mph N/A   Overcast
8:22 AM 19.4 °F 3.6 °F 12.2 °F 74% 29.85 in 1.8 mi NNW 19.6 mph 28.8 mph 0.00 in Snow Light Snow
8:31 AM 17.6 °F 1.7 °F 12.2 °F 79% 29.86 in 1.0 mi NNW 18.4 mph 26.5 mph 0.00 in Snow Light Snow
8:38 AM 17.6 °F 2.7 °F 12.2 °F 79% 29.87 in 0.8 mi NNW 16.1 mph 26.5 mph 0.00 in Snow Light Snow
8:54 AM 17.1 °F 1.0 °F 10.9 °F 77% 29.91 in 0.8 mi NNW 18.4 mph 29.9 mph 0.00 in Snow Light Snow
9:17 AM 17.6 °F 2.2 °F 10.4 °F 73% 29.90 in 1.0 mi NNW 17.3 mph 25.3 mph 0.00 in Snow Light Snow
9:39 AM 15.8 °F -0.6 °F 10.4 °F 79% 29.91 in 0.8 mi NNW 18.4 mph 27.6 mph 0.00 in Snow Light Snow
9:54 AM 15.1 °F -1.6 °F 9.0 °F 77% 29.96 in 0.8 mi NNW 18.4 mph 26.5 mph 0.00 in Snow Light Snow
10:12 AM 14.0 °F -2.0 °F 8.6 °F 79% 29.93 in 1.0 mi NNW 16.1 mph 25.3 mph 0.00 in Snow Light Snow
10:22 AM 12.2 °F -4.8 °F 6.8 °F 79% 29.94 in 0.8 mi NNW 17.3 mph 25.3 mph 0.00 in Snow Light Snow
10:32 AM 12.2 °F 0.7 °F 6.8 °F 79% 29.95 in 1.2 mi NNW 8.1 mph 17.3 mph 0.00 in Snow Light Snow
10:54 AM 12.9 °F -4.9 °F 6.1 °F 74% 29.99 in 1.8 mi NW 19.6 mph 27.6 mph 0.00 in Snow Light Snow
11:15 AM 14.0 °F -2.0 °F 5.0 °F 67% 29.96 in 2.5 mi NNW 16.1 mph 27.6 mph 0.00 in Snow Light Snow
11:19 AM 14.0 °F -0.8 °F 6.8 °F 73% 29.96 in 3.0 mi NNW 13.8 mph 26.5 mph 0.00 in Snow Light Snow
11:50 AM 15.8 °F 0.9 °F 3.2 °F 58% 29.97 in 7.0 mi NNW 15.0 mph 26.5 mph 0.00 in   Partly Cloudy
11:54 AM 14.0 °F -0.8 °F 3.9 °F 64% 30.01 in 10.0 mi NNW 13.8 mph 26.5 mph 0.00 in   Partly Cloudy
12:54 PM 12.9 °F -2.2 °F 1.9 °F 62% 30.03 in 10.0 mi NNW 13.8 mph 25.3 mph N/A   Clear
1:54 PM 12.9 °F -2.8 °F -0.0 °F 56% 30.06 in 10.0 mi NW 15.0 mph 20.7 mph N/A   Clear
2:54 PM 10.9 °F -2.6 °F 1.0 °F 64% 30.11 in 10.0 mi North 10.4 mph 18.4 mph N/A   Partly Cloudy
3:54 PM 9.0 °F -0.9 °F -2.0 °F 61% 30.14 in 10.0 mi North 5.8 mph - N/A   Overcast
4:54 PM 7.0 °F -5.7 °F -4.0 °F 61% 30.17 in 10.0 mi North 8.1 mph - N/A   Clear
5:54 PM 3.9 °F -9.4 °F -5.1 °F 66% 30.20 in 10.0 mi North 8.1 mph - N/A   Clear
6:54 PM 1.9 °F -13.8 °F -6.0 °F 69% 30.23 in 10.0 mi North 10.4 mph - N/A   Clear
7:54 PM 1.9 °F -9.2 °F -7.1 °F 66% 30.24 in 10.0 mi North 5.8 mph - N/A   Clear
8:54 PM 1.0 °F -6.7 °F -7.1 °F 69% 30.24 in 10.0 mi NNE 3.5 mph - N/A   Clear
9:54 PM -0.0 °F -9.9 °F -8.0 °F 69% 30.26 in 10.0 mi NNE 4.6 mph - N/A   Clear
10:54 PM 1.0 °F -11.7 °F -8.0 °F 66% 30.25 in 10.0 mi North 6.9 mph - N/A   Clear
11:54 PM 1.0 °F - -9.0 °F 63% 30.24 in 10.0 mi Calm Calm - N/A   Clear